This is the latest recevied weather packets stored in our database for station/object JH0KSP-13. If no packets are shown the sender has not sent any weather packets the latest 10 day(s).
| Time | Temp. | Humidity | Pressure | Rain* | Wind** | Luminosity | Snow |
|---|---|---|---|---|---|---|---|
| 1777778816 | 21.11° C | 48% | 1011.3 hPa | 0 mm | - | - | - |
| 1777777617 | 20° C | 51% | 1011.6 hPa | 0 mm | - | - | - |
| 1777777208 | 20° C | 50% | 1011.6 hPa | 0 mm | - | - | - |
| 1777776608 | 20° C | 51% | 1011.7 hPa | 0 mm | - | - | - |
| 1777776415 | 20° C | 52% | 1011.8 hPa | 0 mm | - | - | - |
| 1777776009 | 20° C | 52% | 1011.8 hPa | 0 mm | - | - | - |
| 1777775409 | 18.89° C | 56% | 1011.8 hPa | 0 mm | - | - | - |
| 1777775215 | 18.89° C | 55% | 1011.9 hPa | 0 mm | - | - | - |
| 1777774016 | 17.78° C | 60% | 1012 hPa | 0 mm | - | - | - |
| 1777772817 | 17.78° C | 62% | 1012.1 hPa | 0 mm | - | - | - |
| 1777771616 | 16.11° C | 65% | 1012.4 hPa | 0 mm | - | - | - |
| 1777768017 | 15° C | 76% | 1012.7 hPa | 0 mm | - | - | - |
| 1777766817 | 13.89° C | 78% | 1013.2 hPa | 0 mm | - | - | - |
| 1777765616 | 13.89° C | 83% | 1013.4 hPa | 0 mm | - | - | - |
| 1777764416 | 12.78° C | 86% | 1013.4 hPa | 0 mm | - | - | - |
| 1777761608 | 12.22° C | 94% | 1013.7 hPa | 0 mm | - | - | - |
| 1777761009 | 12.22° C | 96% | 1013.5 hPa | 0 mm | - | - | - |
| 1777760815 | 12.22° C | 96% | 1013.4 hPa | 0 mm | - | - | - |
| 1777760409 | 12.22° C | 96% | 1013.4 hPa | 0 mm | - | - | - |
| 1777759615 | 12.22° C | 97% | 1013.6 hPa | 0 mm | - | - | - |
| 1777757216 | 11.11° C | 98% | 1014.2 hPa | 0 mm | - | - | - |
| 1777756808 | 11.11° C | 98% | 1013.9 hPa | 0 mm | - | - | - |
| 1777756208 | 11.11° C | 98% | 1013.9 hPa | 0 mm | - | - | - |
| 1777755608 | 11.11° C | 98% | 1013.9 hPa | 0 mm | - | - | - |
| 1777755008 | 11.11° C | 98% | 1013.9 hPa | 0 mm | - | - | - |
* Rain latest hour (hover to see other rain measurements)
** Current wind speed in m/s (hover to see current wind gust speed)